Temperature
21 21 21 21 21 21 21 21 22 22 21 19 18 16 14 13 13 11 10 11 11 12 13 13 13 14 14 14 14 14 15 15 15 15 15 15 15 15 15 15 15 15 15 15 15 15 15 16 16
21 21 21 22 22 20 20 21 20 21 21 19 17 15 13 12 11 11 10 11 11 11 12 13 13 13 14 14 14 14 14 15 15 15 15 15 15 15 15 15 15 15 15 15 15 15 15 15 15
22 21 21 22 21 20 20 20 20 20 19 18 15 12 11 11 10 10 10 11 11 11 11 12 13 13 13 14 14 14 14 14 14 14 14 14 14 14 14 14 14 14 15 14 15 15 15 15 15
21 21 23 21 18 18 19 19 21 20 18 17 15 12 10 10 10 10 10 10 10 10 10 11 12 12 13 13 13 13 13 14 14 14 14 14 14 14 14 14 14 14 14 14 14 14 15 15 15
22 24 21 19 18 17 17 18 17 17 17 16 14 12 10 10 10 10 10 10 10 10 10 11 11 12 12 12 12 13 13 13 13 13 13 13 14 14 14 14 14 14 14 14 14 14 14 14 15
23 25 21 19 18 17 16 16 16 16 15 15 14 12 10 10 10 10 10 9 10 10 10 11 11 12 12 12 12 12 12 12 12 13 13 13 13 13 13 13 13 14 14 14 14 14 14 14 14
24 22 21 19 18 17 17 15 14 13 13 12 14 13 11 10 10 10 9 9 9 10 10 11 11 11 11 11 11 12 12 12 12 12 12 12 12 12 12 13 13 13 13 13 13 14 14 14 14
24 23 21 20 19 17 15 14 12 12 11 11 12 11 10 10 10 10 9 9 9 9 10 10 10 11 11 11 11 11 11 11 11 11 12 12 12 12 12 12 12 12 12 13 13 13 13 13 14
24 21 19 19 18 16 16 14 12 11 11 10 10 10 10 9 9 9 8 8 9 9 9 10 10 10 10 10 10 10 10 10 10 10 11 11 11 12 11 12 12 12 12 12 12 12 13 13 13
22 18 17 17 17 15 15 14 14 12 11 10 10 9 9 8 8 8 7 7 7 8 8 8 9 9 9 9 9 9 8 8 8 8 8 9 9 10 10 11 11 11 12 12 12 12 12 12 13
19 17 16 16 15 15 14 14 13 12 10 10 9 9 8 8 7 7 7 6 6 6 7 7 7 8 8 8 8 7 6 6 6 5 5 6 7 7 8 9 9 10 10 11 11 12 12 12 12
17 17 16 15 15 14 13 12 10 10 9 9 9 8 8 7 6 6 6 5 5 6 6 6 6 6 6 6 6 5 4 4 3 3 3 3 4 5 5 6 6 7 7 8 9 10 11 11 12
15 14 13 13 13 12 12 11 10 9 9 9 8 8 7 7 6 5 5 5 5 5 5 5 5 4 4 4 4 3 2 2 2 2 2 2 2 2 3 4 4 4 4 6 7 8 9 10 11
15 14 13 13 12 12 11 11 10 9 9 9 8 8 7 6 6 5 4 4 4 4 4 3 3 3 3 3 2 1 1 1 1 1 0 0 1 1 1 2 2 2 3 4 4 5 6 7 9
15 14 14 14 13 12 12 11 10 10 10 10 9 8 7 6 6 5 4 3 3 3 2 2 2 2 2 2 1 1 0 -0 -0 -0 -1 -1 -1 -1 -1 -0 0 0 1 2 2 3 4 5 6
17 16 15 15 14 14 13 11 10 10 10 10 9 9 8 7 6 5 4 3 3 2 2 1 1 1 1 1 0 0 -1 -1 -1 -2 -2 -2 -2 -2 -2 -2 -2 -1 -1 -0 0 1 2 3 5
18 19 16 15 15 15 14 11 10 10 10 10 9 9 8 7 6 5 4 3 2 1 1 0 0 -0 -0 -0 -0 -1 -1 -2 -2 -3 -3 -3 -3 -3 -3 -3 -3 -3 -2 -2 -2 -1 -0 1 2
19 21 19 15 14 15 14 10 10 10 10 10 9 8 8 7 6 4 3 2 1 0 0 -0 -1 -1 -1 -1 -1 -2 -2 -3 -4 -4 -4 -4 -4 -4 -4 -4 -4 -4 -4 -3 -3 -3 -2 -1 -0
20 20 19 14 14 14 13 10 9 9 9 9 8 8 7 6 5 4 3 2 1 -0 -1 -1 -2 -2 -3 -3 -3 -3 -4 -4 -4 -4 -5 -5 -5 -5 -5 -5 -5 -5 -5 -5 -4 -4 -3 -3 -2
20 19 18 14 13 13 12 11 10 9 9 8 7 7 7 6 5 4 3 2 0 -1 -2 -2 -3 -4 -4 -4 -5 -5 -5 -5 -5 -5 -6 -6 -6 -6 -6 -6 -6 -6 -6 -5 -5 -5 -4 -3 -3
19 18 16 16 13 12 12 11 9 9 8 7 7 7 6 5 4 4 2 1 -0 -2 -2 -3 -4 -5 -5 -5 -6 -6 -6 -6 -6 -6 -6 -6 -6 -6 -6 -7 -7 -6 -6 -6 -6 -5 -5 -4 -3
18 15 15 15 13 12 11 11 8 8 8 8 8 7 6 5 4 3 2 0 -1 -2 -3 -4 -5 -5 -6 -6 -6 -7 -7 -7 -7 -7 -7 -7 -7 -7 -7 -7 -7 -7 -7 -6 -6 -6 -5 -5 -4
16 15 14 14 14 13 12 11 9 8 8 8 8 7 6 5 4 3 1 -0 -1 -3 -4 -4 -5 -6 -6 -7 -7 -7 -8 -8 -8 -8 -8 -8 -8 -8 -8 -8 -8 -8 -8 -7 -7 -7 -6 -5 -5
15 15 14 14 13 13 15 12 9 8 8 7 7 6 5 4 3 2 1 -1 -2 -3 -4 -5 -6 -6 -7 -7 -7 -8 -8 -8 -8 -8 -8 -8 -8 -8 -9 -9 -9 -9 -8 -8 -8 -7 -7 -6 -5
16 15 15 14 13 14 15 13 8 7 7 6 6 6 5 4 2 1 -0 -2 -3 -4 -5 -5 -6 -6 -7 -7 -8 -8 -8 -9 -9 -9 -9 -9 -9 -9 -9 -9 -9 -9 -9 -9 -8 -8 -7 -6 -6
16 15 13 13 13 14 13 11 6 7 7 6 6 6 4 3 2 0 -1 -2 -3 -4 -5 -6 -6 -7 -7 -8 -8 -8 -9 -9 -9 -10 -10 -10 -10 -10 -10 -10 -10 -10 -10 -9 -9 -8 -8 -7 -6
15 14 14 12 13 13 13 7 7 7 7 7 6 5 4 2 1 -1 -2 -3 -4 -4 -5 -6 -7 -7 -7 -8 -8 -9 -9 -9 -10 -10 -10 -10 -10 -11 -11 -11 -11 -10 -10 -10 -9 -9 -8 -8 -7
14 13 13 13 12 11 13 11 7 6 6 6 6 4 3 2 0 -1 -2 -3 -4 -5 -5 -6 -7 -7 -8 -8 -8 -9 -9 -10 -10 -10 -11 -11 -11 -11 -11 -11 -11 -11 -11 -10 -10 -9 -9 -8 -7
14 14 14 13 12 11 10 9 7 6 6 5 5 4 2 1 -1 -2 -3 -4 -4 -5 -6 -6 -7 -7 -8 -8 -9 -9 -9 -10 -10 -11 -11 -11 -11 -11 -11 -12 -11 -11 -11 -11 -10 -10 -9 -8 -7
13 12 12 11 11 12 10 7 7 6 6 6 5 3 2 0 -1 -2 -3 -4 -5 -6 -6 -7 -7 -8 -8 -9 -9 -9 -10 -10 -11 -11 -11 -12 -12 -12 -12 -12 -12 -12 -12 -11 -11 -10 -9 -8 -8
Wind_Speed
18 18 6 1 1 6 15 14 14 12 11 18 16 14 15 15 10 8 6 12 14 16 22 26 29 29 29 29 28 27 26 25 24 22 21 20 18 17 17 16 15 15 14 12 11 11 11 10 10
13 12 5 2 5 11 12 12 15 16 12 14 15 16 13 12 11 5 7 12 15 16 21 25 27 29 29 29 28 28 27 26 26 25 24 23 21 20 18 17 16 15 15 13 12 12 11 11 10
11 9 3 2 12 11 10 11 13 17 21 12 9 11 8 7 8 5 9 13 15 16 20 24 26 27 28 29 29 28 28 27 27 26 25 24 22 21 20 19 17 16 15 14 13 12 12 11 10
6 4 1 11 18 17 15 13 8 13 14 16 11 10 7 7 5 7 10 15 13 17 20 23 26 27 28 28 28 28 28 28 27 28 27 26 24 23 21 19 19 18 17 15 14 13 12 11 10
4 1 10 12 13 13 16 17 21 19 9 14 14 9 7 7 6 9 9 14 12 15 21 24 28 28 27 27 28 27 28 28 27 28 29 28 26 24 23 22 21 20 19 17 15 14 13 12 11
4 3 9 11 13 12 13 18 16 17 14 13 10 10 7 7 8 9 10 12 18 18 22 24 28 29 29 27 28 27 27 28 27 28 30 29 27 25 25 24 24 23 22 20 17 15 14 13 12
3 8 12 13 11 9 9 10 17 14 13 13 9 8 6 9 8 9 10 13 17 21 22 24 26 28 29 27 27 27 26 27 27 27 30 29 27 26 26 26 26 25 24 23 20 18 16 15 14
4 5 11 10 9 7 9 9 9 13 10 10 12 8 7 8 9 9 10 10 13 19 21 24 25 27 27 26 26 27 26 26 27 27 29 29 27 26 26 27 27 27 26 25 23 21 19 17 15
3 7 9 8 7 8 10 8 8 10 14 15 13 13 10 9 10 10 11 12 13 15 17 23 24 25 26 25 25 25 24 25 25 24 27 26 24 24 23 27 28 28 28 27 25 25 23 20 16
9 6 8 11 12 12 13 11 9 9 14 14 11 12 11 11 11 12 13 14 15 16 15 21 22 24 25 24 23 22 21 22 22 22 23 23 22 22 23 25 26 27 28 26 27 28 24 19 14
7 8 9 12 14 14 13 12 11 9 10 11 10 11 10 11 12 13 13 12 13 13 14 17 22 24 24 23 22 21 20 20 21 22 23 22 21 20 21 21 21 23 23 22 24 23 21 19 16
8 13 11 9 11 12 10 8 10 13 9 10 10 10 10 11 12 13 13 12 12 13 14 15 22 23 24 24 21 20 19 19 19 21 22 21 17 18 19 18 19 19 18 18 19 18 20 21 20
10 9 13 15 16 16 16 14 12 12 10 9 10 10 11 11 11 11 11 12 13 14 15 13 21 22 23 22 21 20 20 19 21 20 21 22 18 15 18 18 18 18 18 17 16 15 15 15 16
12 16 14 12 12 10 13 11 7 8 9 8 9 9 9 10 11 11 12 13 13 14 15 13 18 23 24 21 20 19 20 21 21 19 21 22 21 19 18 17 17 17 19 19 17 15 12 11 12
16 12 11 8 8 9 10 9 8 8 7 7 8 8 9 9 10 10 10 11 12 12 14 14 18 23 23 22 21 21 21 22 20 20 21 22 23 21 19 15 14 17 21 20 17 15 12 11 13
9 8 7 7 8 7 4 6 9 5 4 5 6 7 7 8 10 10 10 10 11 12 13 13 20 22 23 22 22 21 22 22 20 20 21 23 24 23 20 15 13 20 20 17 11 10 12 12 12
8 6 7 6 4 5 5 7 8 4 3 3 5 7 8 8 10 10 10 10 11 12 13 14 15 17 21 21 22 22 21 21 21 20 20 23 23 24 21 16 16 20 17 13 12 12 12 13 13
6 6 5 8 4 3 2 9 8 4 2 2 5 7 8 9 9 9 9 10 10 11 12 13 13 17 20 18 18 16 16 18 20 19 20 23 23 24 21 17 18 19 13 11 12 14 13 12 13
7 7 5 6 4 1 4 10 8 6 2 3 6 7 7 8 9 9 9 9 10 11 12 13 13 13 13 11 12 12 12 11 12 18 22 22 23 23 20 16 16 16 12 14 15 14 15 13 12
5 6 3 6 5 1 4 8 9 7 4 5 5 5 6 7 8 9 9 9 10 10 11 12 12 12 11 10 10 8 10 8 13 18 20 21 23 23 20 17 14 14 11 13 14 14 11 12 11
2 5 6 3 5 3 3 7 10 9 7 5 4 1 6 8 9 8 8 9 9 10 10 12 12 11 12 16 12 11 7 8 8 10 8 19 23 22 20 18 17 15 11 11 13 13 14 13 12
4 6 5 4 3 5 8 3 8 10 8 7 3 5 7 8 8 7 8 9 9 9 9 10 11 10 12 15 11 13 11 11 12 10 8 17 22 21 20 19 18 16 12 11 12 13 12 13 12
5 4 5 7 6 4 6 5 6 9 8 6 5 7 7 7 8 8 9 9 9 9 8 9 10 9 11 12 11 11 10 9 10 11 11 10 16 19 19 20 19 16 13 10 11 12 12 11 11
7 8 8 4 3 5 4 6 5 3 5 7 7 7 7 8 9 9 9 9 8 8 8 8 9 9 9 9 9 11 12 12 13 13 12 11 8 12 17 21 19 18 14 11 12 11 13 12 12
5 7 3 2 4 4 2 0 6 7 10 8 5 5 7 8 8 8 9 9 8 9 8 9 10 10 10 10 10 11 11 11 12 12 12 13 11 10 9 18 17 16 16 17 15 11 12 12 12
6 5 4 4 6 5 3 3 6 9 7 3 1 5 8 9 8 9 9 8 8 9 9 9 10 10 10 10 11 9 9 9 8 11 11 11 10 9 15 19 19 19 20 19 15 11 11 11 12
6 5 2 3 7 6 2 6 6 6 5 2 5 7 8 8 8 8 8 8 8 8 9 9 10 10 10 10 11 10 10 10 10 10 9 7 10 15 19 19 17 18 18 17 13 10 11 12 12
3 4 4 4 5 6 6 4 5 6 2 5 7 8 8 8 8 8 8 8 8 8 8 9 9 10 10 10 11 14 10 9 10 9 11 10 12 16 16 15 15 15 15 15 12 11 11 13 13
0 2 2 4 4 3 6 1 5 7 5 5 6 7 7 8 8 8 8 8 8 8 8 8 9 10 10 11 11 11 11 10 11 9 10 10 12 14 13 13 13 14 14 12 13 13 13 15 16
3 4 4 3 5 4 5 1 6 7 4 3 5 7 8 9 8 8 9 9 8 9 9 9 9 10 10 11 11 12 12 11 11 12 11 14 12 14 15 14 13 15 15 14 14 14 15 17 16
Wind_Direction
310 298 276 267 242 76 69 58 55 56 74 65 60 67 72 53 43 76 327 333 5 20 20 20 23 24 25 25 25 23 21 19 15 10 5 359 354 348 344 342 340 340 336 329 324 320 310 302 300
302 297 298 249 98 84 73 70 60 42 66 87 60 57 61 58 37 51 349 343 17 29 30 24 26 27 28 27 25 24 22 21 18 14 9 4 360 354 348 343 341 339 336 329 321 317 311 301 292
280 271 265 46 66 67 71 65 87 61 40 66 74 50 51 35 24 16 357 1 21 31 37 28 27 28 28 26 25 23 21 19 18 15 11 7 3 360 355 351 345 339 334 329 321 314 309 302 290
292 261 107 75 71 46 43 33 48 84 51 52 81 72 71 34 14 16 13 17 24 25 30 29 26 26 26 25 22 21 19 17 16 14 10 7 4 3 1 358 354 347 337 329 323 314 308 304 294
237 120 84 86 79 60 40 45 50 57 57 54 75 86 77 45 30 33 28 26 26 24 22 23 23 21 21 21 19 17 16 14 13 12 9 5 3 3 4 3 0 354 345 334 323 315 307 303 298
265 140 98 94 96 92 58 38 56 63 54 34 80 98 73 46 32 44 37 33 29 25 23 20 19 16 13 14 14 12 12 11 9 10 7 3 1 1 3 3 360 354 349 342 332 319 308 298 293
5 80 103 110 101 78 66 55 41 55 45 17 20 87 75 40 30 49 46 36 33 27 23 19 18 12 8 5 8 6 7 7 5 7 6 2 359 359 359 360 356 352 348 343 336 327 315 302 290
332 93 104 102 91 85 75 66 51 43 49 31 32 67 63 34 32 40 47 37 31 27 22 17 14 10 4 358 2 1 2 4 2 5 3 1 357 356 355 356 351 349 346 342 337 334 324 309 292
337 68 49 35 90 91 110 100 85 84 80 69 66 71 66 46 41 36 36 32 27 25 19 16 11 8 3 357 358 355 357 360 359 2 0 359 355 352 353 352 348 349 346 342 342 339 329 316 298
36 66 55 48 82 92 87 93 110 89 76 78 77 71 63 49 39 38 33 28 23 20 14 14 8 6 3 357 353 350 352 355 355 359 357 358 354 350 353 348 346 347 343 346 346 340 334 326 311
47 89 95 77 89 99 92 79 75 100 67 63 67 65 55 52 41 35 32 28 24 17 14 12 6 5 3 356 352 348 349 353 351 354 355 357 353 349 351 346 342 341 343 347 343 341 334 326 317
76 63 89 94 96 96 90 80 66 71 87 77 66 60 55 49 45 33 27 23 20 16 12 10 5 4 1 355 350 348 348 349 348 350 354 357 354 351 349 342 338 338 342 342 341 334 328 327 322
87 82 74 79 79 84 90 90 93 96 96 91 80 67 57 49 43 39 26 23 19 15 10 7 3 4 359 354 351 347 346 346 346 349 353 359 358 350 346 338 336 336 341 340 335 329 329 328 324
110 113 113 110 109 105 104 105 98 112 118 107 90 72 60 56 47 38 27 21 17 14 9 4 2 3 359 355 351 346 344 345 346 347 351 359 358 349 346 336 334 338 343 337 331 329 330 326 325
125 121 125 132 122 138 126 96 107 132 141 124 110 98 78 59 56 42 33 25 18 14 9 3 0 1 359 353 351 346 344 346 344 346 350 359 354 348 346 337 335 341 340 334 333 330 332 329 329
167 159 140 150 155 174 259 127 130 144 120 88 78 81 74 68 58 47 36 28 21 15 10 4 2 359 357 353 352 347 345 345 343 346 352 356 348 347 346 338 337 340 338 335 334 336 338 331 327
204 221 135 147 156 168 229 123 138 142 145 121 76 59 48 47 54 49 37 31 22 18 11 4 1 360 355 353 351 344 345 343 342 346 352 350 345 346 343 336 339 339 336 336 336 337 334 328 324
346 337 109 128 114 205 169 119 133 156 197 100 70 55 44 32 42 51 37 32 24 20 14 3 359 359 354 354 347 343 343 341 340 345 350 347 344 343 341 338 340 338 334 335 333 332 332 326 322
334 334 51 101 106 269 159 140 148 156 172 47 49 34 37 31 25 40 36 33 23 18 14 3 358 355 355 354 345 343 340 337 337 345 347 343 342 340 339 342 340 337 334 332 332 333 328 327 324
319 322 61 124 122 241 167 160 152 154 121 53 19 13 21 33 16 21 26 31 22 18 12 0 356 352 354 351 340 338 332 329 336 342 338 339 340 340 341 345 341 336 332 329 331 331 328 326 330
318 21 1 12 136 214 218 195 159 147 133 160 220 90 39 29 14 10 19 28 21 19 12 359 352 349 350 349 342 339 327 332 338 336 333 340 340 338 340 343 342 334 330 326 328 328 331 326 321
13 36 333 295 231 217 179 236 159 157 173 190 182 68 44 32 15 13 25 27 21 18 11 359 349 346 348 348 343 341 340 338 335 333 330 337 337 335 338 344 341 333 328 325 327 332 324 321 319
327 324 278 272 253 259 193 239 143 151 189 174 96 55 39 31 20 22 31 28 20 15 8 355 345 345 346 347 342 339 334 332 330 329 331 333 331 333 339 342 339 332 326 323 323 322 320 317 312
287 271 230 247 243 257 211 190 142 180 149 101 60 36 27 26 24 26 27 22 14 12 5 351 345 343 343 344 340 338 334 334 332 334 334 332 328 332 338 338 335 328 325 322 318 317 317 314 311
314 326 324 275 227 212 75 183 103 82 71 70 42 20 27 30 26 22 19 12 9 5 359 350 346 341 342 341 340 336 334 332 330 333 331 329 331 333 331 335 331 327 324 322 320 317 315 312 311
326 349 19 313 304 313 193 111 115 106 105 120 48 40 37 33 29 24 17 11 7 2 357 351 345 341 341 340 338 331 332 330 327 328 326 326 329 326 328 332 327 325 324 322 319 316 315 315 313
344 37 38 282 279 278 132 96 128 139 166 125 30 36 34 33 30 21 12 11 7 2 357 350 344 340 339 339 336 330 332 328 326 324 321 323 326 328 330 328 326 325 323 321 320 317 318 317 313
8 339 314 295 322 307 295 126 165 167 124 38 21 29 29 33 29 18 11 8 6 2 352 347 342 337 336 338 336 334 327 324 324 322 323 324 326 327 326 326 325 325 323 322 321 320 317 320 317
227 232 312 283 248 270 297 25 93 106 77 29 16 35 36 39 31 16 11 6 1 357 350 344 341 339 339 337 332 328 325 324 325 322 322 323 323 325 324 324 325 325 323 324 321 318 321 323 317
21 15 348 316 311 298 289 141 123 119 113 61 35 41 46 44 31 18 10 360 356 352 346 343 342 340 338 334 330 328 326 326 325 324 323 324 321 322 322 323 324 324 325 323 319 321 327 321 317
Height
1525 1524 1526 1529 1530 1536 1547 1548 1545 1546 1550 1556 1556 1559 1569 1577 1583 1596 1596 1591 1587 1582 1578 1576 1574 1571 1569 1567 1565 1563 1561 1559 1557 1555 1553 1552 1550 1549 1548 1546 1546 1545 1544 1543 1543 1542 1542 1542 1541
1525 1525 1528 1529 1534 1551 1557 1553 1553 1553 1554 1556 1561 1568 1574 1584 1591 1594 1593 1591 1588 1584 1580 1577 1574 1572 1570 1567 1565 1563 1561 1559 1557 1555 1554 1552 1550 1548 1547 1546 1544 1543 1542 1541 1540 1540 1539 1539 1539
1526 1527 1531 1531 1542 1555 1560 1557 1557 1558 1558 1559 1568 1576 1584 1592 1596 1596 1595 1593 1589 1585 1581 1578 1575 1572 1570 1568 1565 1563 1561 1559 1557 1555 1553 1551 1550 1548 1546 1544 1543 1541 1540 1539 1538 1538 1537 1537 1536
1528 1530 1533 1544 1559 1564 1563 1561 1557 1558 1564 1568 1572 1584 1593 1598 1599 1599 1596 1593 1589 1586 1583 1579 1576 1573 1570 1568 1566 1563 1561 1559 1557 1554 1552 1550 1548 1546 1545 1543 1541 1540 1538 1537 1536 1535 1534 1534 1534
1530 1532 1540 1555 1564 1571 1570 1568 1566 1566 1571 1577 1577 1590 1597 1601 1601 1599 1597 1594 1590 1587 1584 1580 1577 1574 1571 1569 1566 1564 1561 1558 1556 1553 1551 1549 1547 1545 1543 1541 1539 1537 1536 1534 1533 1532 1532 1531 1531
1533 1531 1547 1562 1568 1573 1576 1575 1573 1576 1579 1581 1584 1590 1600 1603 1602 1600 1597 1594 1591 1587 1584 1581 1578 1575 1572 1570 1567 1564 1561 1558 1555 1553 1550 1548 1546 1543 1541 1538 1537 1535 1533 1532 1530 1529 1529 1528 1527
1532 1535 1550 1560 1568 1573 1577 1580 1581 1583 1584 1586 1587 1592 1602 1603 1602 1600 1598 1595 1591 1588 1584 1581 1579 1576 1573 1570 1567 1564 1561 1558 1555 1552 1549 1547 1544 1541 1539 1536 1534 1532 1530 1528 1527 1526 1525 1524 1524
1535 1539 1550 1557 1567 1576 1582 1584 1588 1587 1591 1591 1590 1596 1603 1605 1603 1601 1598 1595 1591 1588 1585 1582 1579 1576 1573 1570 1567 1564 1561 1557 1554 1550 1547 1544 1542 1539 1536 1534 1531 1529 1527 1525 1524 1522 1521 1520 1520
1538 1548 1562 1563 1569 1578 1581 1585 1590 1595 1595 1596 1598 1601 1604 1605 1603 1600 1598 1594 1591 1588 1585 1582 1579 1575 1572 1569 1566 1563 1559 1555 1552 1548 1544 1541 1538 1535 1533 1530 1528 1526 1524 1522 1520 1518 1517 1517 1516
1546 1562 1574 1573 1572 1580 1583 1586 1590 1597 1598 1600 1603 1604 1605 1604 1603 1600 1597 1595 1591 1588 1585 1582 1578 1575 1571 1568 1564 1560 1557 1553 1549 1545 1541 1538 1534 1531 1529 1526 1524 1522 1519 1517 1515 1514 1513 1512 1512
1558 1569 1576 1580 1580 1583 1586 1589 1592 1597 1603 1605 1606 1606 1606 1605 1603 1601 1599 1597 1594 1591 1587 1582 1578 1574 1570 1566 1562 1558 1555 1551 1547 1543 1539 1535 1531 1528 1524 1521 1519 1516 1514 1512 1510 1509 1509 1508 1507
1567 1574 1578 1583 1585 1586 1589 1593 1597 1600 1606 1608 1608 1608 1607 1606 1604 1602 1600 1598 1595 1591 1587 1583 1579 1574 1570 1566 1561 1557 1554 1550 1546 1542 1538 1533 1528 1525 1521 1518 1515 1512 1509 1507 1505 1504 1503 1502 1501
1573 1582 1584 1586 1587 1590 1592 1596 1600 1605 1608 1609 1609 1609 1609 1608 1606 1604 1602 1599 1596 1591 1587 1583 1578 1573 1569 1564 1560 1556 1553 1549 1545 1541 1537 1532 1527 1522 1518 1515 1512 1510 1506 1503 1501 1499 1497 1496 1496
1576 1582 1587 1590 1591 1594 1595 1599 1602 1607 1608 1609 1610 1610 1610 1609 1607 1605 1602 1599 1596 1592 1588 1583 1579 1574 1569 1564 1559 1555 1551 1548 1544 1540 1536 1531 1526 1521 1516 1512 1509 1507 1503 1500 1498 1495 1493 1491 1490
1577 1582 1587 1590 1591 1595 1595 1601 1605 1607 1608 1609 1609 1610 1610 1609 1607 1606 1603 1600 1597 1593 1588 1583 1578 1573 1568 1563 1558 1554 1550 1546 1542 1539 1535 1530 1524 1520 1515 1511 1507 1504 1500 1497 1494 1491 1489 1486 1485
1574 1578 1584 1588 1589 1592 1596 1602 1606 1607 1608 1609 1610 1610 1610 1609 1608 1606 1604 1601 1597 1593 1588 1583 1578 1572 1567 1562 1557 1552 1548 1545 1541 1537 1533 1527 1523 1518 1513 1509 1505 1501 1497 1494 1490 1487 1484 1482 1480
1572 1570 1579 1587 1587 1589 1592 1600 1605 1607 1608 1609 1610 1610 1611 1610 1609 1606 1604 1601 1597 1592 1587 1582 1576 1571 1565 1561 1556 1551 1547 1543 1539 1535 1530 1526 1521 1517 1512 1508 1503 1499 1495 1491 1488 1484 1481 1478 1475
1570 1564 1568 1582 1587 1587 1590 1599 1604 1607 1608 1609 1610 1611 1611 1611 1610 1607 1604 1601 1597 1592 1586 1581 1576 1570 1564 1559 1554 1549 1545 1541 1537 1533 1529 1524 1520 1515 1511 1506 1502 1498 1494 1490 1486 1482 1479 1476 1473
1567 1568 1571 1583 1587 1588 1590 1598 1603 1606 1608 1609 1610 1611 1611 1611 1610 1607 1604 1600 1595 1591 1585 1580 1574 1569 1563 1557 1551 1546 1542 1538 1535 1532 1527 1523 1518 1514 1510 1505 1501 1497 1493 1489 1485 1481 1477 1474 1471
1568 1570 1573 1584 1586 1588 1590 1596 1600 1605 1607 1610 1611 1611 1611 1610 1609 1607 1603 1599 1595 1590 1585 1579 1574 1568 1563 1558 1553 1548 1543 1538 1535 1530 1526 1521 1517 1513 1509 1504 1499 1495 1491 1487 1484 1480 1476 1473 1471
1569 1575 1579 1580 1587 1588 1590 1595 1599 1603 1607 1610 1610 1610 1610 1609 1608 1606 1602 1598 1594 1589 1584 1579 1573 1568 1562 1557 1552 1546 1541 1537 1532 1527 1523 1519 1515 1511 1507 1503 1498 1494 1490 1486 1483 1479 1475 1471 1469
1576 1578 1579 1579 1586 1586 1591 1595 1599 1601 1605 1607 1608 1608 1609 1608 1607 1605 1601 1597 1593 1589 1583 1578 1573 1567 1562 1556 1551 1545 1540 1535 1531 1526 1521 1517 1513 1509 1505 1501 1496 1492 1488 1484 1481 1477 1474 1470 1467
1579 1578 1579 1578 1581 1583 1587 1590 1597 1599 1603 1604 1606 1607 1608 1607 1606 1603 1600 1596 1593 1588 1583 1577 1572 1567 1561 1556 1550 1545 1540 1535 1530 1525 1520 1515 1510 1507 1503 1498 1493 1489 1485 1481 1478 1475 1471 1468 1466
1579 1576 1576 1578 1582 1586 1572 1583 1593 1597 1598 1603 1606 1607 1607 1606 1605 1603 1599 1596 1592 1587 1582 1576 1570 1565 1560 1554 1549 1544 1539 1533 1527 1522 1517 1512 1507 1504 1500 1495 1490 1486 1482 1478 1475 1471 1468 1465 1462
1579 1580 1583 1584 1586 1580 1570 1576 1599 1600 1602 1604 1607 1607 1606 1605 1603 1601 1598 1594 1590 1585 1580 1574 1569 1563 1558 1553 1548 1542 1537 1532 1527 1521 1515 1510 1505 1500 1496 1492 1487 1483 1479 1475 1471 1468 1465 1462 1459
1581 1582 1596 1599 1590 1577 1572 1584 1605 1602 1604 1606 1606 1606 1605 1604 1602 1600 1597 1593 1589 1584 1578 1573 1567 1562 1557 1551 1546 1541 1536 1530 1525 1520 1514 1509 1504 1498 1494 1489 1484 1480 1475 1471 1468 1464 1461 1458 1455
1585 1587 1589 1594 1587 1584 1577 1600 1605 1603 1604 1604 1605 1605 1604 1603 1601 1599 1596 1592 1587 1582 1577 1572 1566 1561 1555 1550 1544 1538 1533 1528 1523 1518 1513 1508 1502 1497 1491 1486 1481 1476 1472 1468 1464 1461 1457 1454 1450
1588 1589 1591 1593 1597 1596 1578 1584 1599 1602 1603 1604 1604 1604 1603 1602 1600 1598 1594 1591 1586 1581 1576 1571 1565 1560 1554 1548 1542 1537 1531 1526 1521 1515 1510 1505 1499 1494 1488 1483 1478 1473 1469 1465 1461 1457 1453 1450 1446
1589 1588 1589 1591 1592 1601 1596 1597 1597 1601 1603 1604 1603 1603 1602 1600 1598 1596 1593 1589 1585 1580 1575 1569 1564 1558 1552 1546 1540 1534 1529 1523 1518 1513 1508 1502 1497 1491 1486 1481 1475 1470 1466 1462 1458 1454 1450 1446 1442
1590 1592 1593 1600 1596 1590 1595 1603 1598 1600 1601 1602 1602 1602 1601 1599 1597 1595 1592 1588 1583 1579 1573 1568 1562 1557 1551 1545 1538 1532 1527 1521 1515 1510 1505 1500 1494 1489 1484 1478 1473 1468 1463 1459 1455 1451 1447 1442 1439